Jacksonville Craig, FL

6:12 PM EDT on March 23, 2017 (GMT -0400)
Craig Municipal

Weather History for KCRG - March, 2014

Change the Weather History Date:

Wednesday, March 26, 2014

  Actual Average Record
Temperature  
Mean Temperature 49 °F -  
Max Temperature 57 °F 72 °F 82 °F (2002)
Min Temperature 41 °F 53 °F 41 °F (2014)
Degree Days  
Heating Degree Days 16    
Moisture  
Dew Point 26 °F    
Average Humidity 44    
Maximum Humidity 76    
Minimum Humidity 28    
Precipitation  
Precipitation 0.00 in - - ()
Sea Level Pressure  
Sea Level Pressure 30.27 in    
Wind  
Wind Speed 12 mph (North)    
Max Wind Speed 23 mph    
Max Gust Speed 29 mph    
Visibility 10 miles    
Events      
Averages and records for this station are not official NWS values.
T = Trace of Precipitation, MM = Missing Value Source: NWS Daily Summary

Daily Weather History Graph

Daily Weather History Graph

Search for Another Location

Airport or City:

Trip Planner

Search our weather history database for the weather conditions in past years. The results will help you decide how hot, cold, wet, or windy it might be!

Date:

Astronomy

Mar. 26, 2014 Rise Set
Actual Time 7:22 AM EDT 7:41 PM EDT
Civil Twilight 6:58 AM EDT 8:05 PM EDT
Nautical Twilight 6:30 AM EDT 8:33 PM EDT
Astronomical Twilight 6:02 AM EDT 9:01 PM EDT
Moon 4:12 AM EDT (3/26) 3:34 PM EDT (3/26)
Length of Visible Light 13h 06m
Length of Day
12h 18m
Waning Crescent, 22% of the Moon is Illuminated
Mar 26
Waning Crescent
Mar 30
New
Apr 7
First Quarter
Apr 15
Full
Apr 22
Last Quarter

Hourly Weather History & Observations

Time (EDT) Temp. Windchill Dew Point Humidity Pressure Visibility Wind Dir Wind Speed Gust Speed Precip Events Conditions
12:53 AM 50.0 °F - 21.0 °F 32% 30.13 in 10.0 mi NNW 23.0 mph 28.8 mph N/A   Clear
1:53 AM 48.0 °F - 21.0 °F 34% 30.15 in 10.0 mi NNW 13.8 mph - N/A   Clear
2:53 AM 46.9 °F - 21.0 °F 36% 30.16 in 10.0 mi NNW 13.8 mph 21.9 mph N/A   Clear
3:53 AM 45.0 °F 39.3 °F 23.0 °F 42% 30.18 in 10.0 mi North 11.5 mph - N/A   Clear
4:53 AM 44.1 °F 37.7 °F 21.0 °F 40% 30.20 in 10.0 mi NNW 12.7 mph - N/A   Clear
5:53 AM 43.0 °F 35.7 °F 21.0 °F 42% 30.23 in 10.0 mi NNW 15.0 mph 23.0 mph N/A   Clear
6:53 AM 42.1 °F 36.6 °F 21.0 °F 43% 30.25 in 10.0 mi NNW 9.2 mph 18.4 mph N/A   Clear
7:53 AM 41.0 °F 34.7 °F 21.9 °F 47% 30.27 in 10.0 mi NNW 10.4 mph - N/A   Clear
8:53 AM 44.1 °F 37.4 °F 19.9 °F 38% 30.30 in 10.0 mi North 13.8 mph - N/A   Clear
9:53 AM 45.0 °F 39.3 °F 19.9 °F 37% 30.33 in 10.0 mi North 11.5 mph - N/A   Clear
10:53 AM 48.0 °F - 19.9 °F 33% 30.35 in 10.0 mi NNW 8.1 mph - N/A   Clear
11:53 AM 50.0 °F - 19.9 °F 31% 30.34 in 10.0 mi NW 8.1 mph - N/A   Clear
12:53 PM 53.1 °F - 21.9 °F 30% 30.32 in 10.0 mi NW 6.9 mph - N/A   Clear
1:53 PM 54.0 °F - 21.0 °F 28% 30.30 in 10.0 mi NNW 9.2 mph - N/A   Clear
2:53 PM 57.0 °F - 28.0 °F 33% 30.29 in 10.0 mi NE 5.8 mph - N/A   Clear
3:53 PM 55.9 °F - 28.9 °F 36% 30.27 in 10.0 mi SE 6.9 mph - N/A   Clear
4:53 PM 55.0 °F - 30.9 °F 40% 30.27 in 10.0 mi ESE 8.1 mph - N/A   Clear
5:53 PM 55.0 °F - 32.0 °F 42% 30.28 in 10.0 mi ESE 6.9 mph - N/A   Clear
6:53 PM 53.1 °F - 33.1 °F 47% 30.29 in 10.0 mi SE 5.8 mph - N/A   Clear
7:53 PM 51.1 °F - 35.1 °F 54% 30.29 in 10.0 mi ESE 4.6 mph - N/A   Clear
8:53 PM 48.0 °F - 36.0 °F 63% 30.30 in 10.0 mi Calm Calm - N/A   Clear
9:53 PM 46.9 °F - 39.0 °F 74% 30.30 in 10.0 mi Calm Calm - N/A   Clear
10:53 PM 46.9 °F - 37.9 °F 71% 30.32 in 10.0 mi Calm Calm - N/A   Clear
11:53 PM 45.0 °F - 37.9 °F 76% 30.32 in 10.0 mi Calm Calm - N/A   Clear